| time (UTC) | temp C | wind direction | speed KPH | gust KPH | rain 1hr cm | rain 24hr cm | rain mn cm | humidity % | barometer mb |
| 20260508135254 | 10 | 315 | 25.7 | 49.9 | 0.00 | 0.00 | 0.00 | 68 | 1006.1 |
| 20260508134743 | 10 | 270 | 33.8 | 48.3 | 0.00 | 0.00 | 0.00 | 69 | 1006.0 |
| 20260508134234 | 10 | 270 | 25.7 | 48.3 | 0.00 | 0.00 | 0.00 | 70 | 1005.8 |
| 20260508133723 | 10 | 270 | 25.7 | 45.1 | 0.00 | 0.00 | 0.00 | 71 | 1006.0 |
| 20260508133214 | 10 | 270 | 27.4 | 46.7 | 0.00 | 0.00 | 0.00 | 69 | 1006.0 |
| 20260508132153 | 9 | 270 | 29.0 | 49.9 | 0.00 | 0.00 | 0.00 | 71 | 1005.9 |
| 20260508131643 | 9 | 270 | 24.1 | 49.9 | 0.00 | 0.00 | 0.00 | 69 | 1005.8 |
| 20260508131133 | 9 | 270 | 27.4 | 49.9 | 0.00 | 0.00 | 0.00 | 71 | 1006.1 |
| 20260508130623 | 9 | 270 | 25.7 | 49.9 | 0.00 | 0.00 | 0.00 | 73 | 1005.9 |
| 20260508130113 | 9 | 225 | 27.4 | 41.8 | 0.00 | 0.00 | 0.00 | 73 | 1005.9 |
| 20260508125053 | 9 | 225 | 24.1 | 45.1 | 0.00 | 0.00 | 0.00 | 72 | 1006.0 |
| 20260508124543 | 8 | 270 | 27.4 | 40.2 | 0.00 | 0.00 | 0.00 | 71 | 1005.9 |
| 20260508124033 | 8 | 270 | 22.5 | 38.6 | 0.00 | 0.00 | 0.00 | 71 | 1005.9 |
| 20260508123527 | 8 | 270 | 19.3 | 33.8 | 0.00 | 0.00 | 0.00 | 71 | 1005.9 |
| 20260508123013 | 8 | 270 | 11.3 | 37.0 | 0.00 | 0.00 | 0.00 | 71 | 1005.9 |
| 20260508121442 | 8 | 270 | 17.7 | 38.6 | 0.00 | 0.00 | 0.00 | 70 | 1005.7 |
| 20260508120931 | 8 | 270 | 19.3 | 45.1 | 0.00 | 0.00 | 0.00 | 70 | 1005.8 |
| 20260508120422 | 8 | 270 | 24.1 | 45.1 | 0.00 | 0.00 | 0.00 | 70 | 1005.7 |
| 20260508115918 | 7 | 270 | 24.1 | 38.6 | 0.00 | 0.00 | 0.00 | 70 | 1005.7 |
| 20260508114851 | 7 | 270 | 12.9 | 37.0 | 0.00 | 0.00 | 0.00 | 71 | 1005.5 |
| 20260508114341 | 7 | 270 | 27.4 | 45.1 | 0.00 | 0.00 | 0.00 | 70 | 1005.2 |
| 20260508113831 | 7 | 270 | 17.7 | 45.1 | 0.00 | 0.00 | 0.00 | 71 | 1005.1 |
| 20260508112811 | 7 | 315 | 17.7 | 38.6 | 0.00 | 0.00 | 0.00 | 71 | 1005.1 |
| 20260508112301 | 7 | 270 | 16.1 | 32.2 | 0.00 | 0.00 | 0.00 | 72 | 1004.9 |
| 20260508111751 | 7 | 270 | 12.9 | 32.2 | 0.00 | 0.00 | 0.00 | 71 | 1004.8 |
| 20260508111240 | 7 | 270 | 9.7 | 32.2 | 0.00 | 0.00 | 0.00 | 71 | 1004.9 |
| 20260508110730 | 7 | 270 | 17.7 | 45.1 | 0.00 | 0.00 | 0.00 | 71 | 1004.9 |
| 20260508110220 | 7 | 270 | 19.3 | 45.1 | 0.00 | 0.00 | 0.00 | 71 | 1004.5 |
| 20260508105711 | 7 | 270 | 20.9 | 33.8 | 0.00 | 0.00 | 0.00 | 71 | 1004.7 |
| 20260508105201 | 7 | 270 | 12.9 | 37.0 | 0.00 | 0.00 | 0.00 | 72 | 1004.5 |
| 20260508104140 | 7 | 270 | 11.3 | 33.8 | 0.00 | 0.00 | 0.00 | 72 | 1004.2 |
| 20260508103120 | 7 | 270 | 17.7 | 38.6 | 0.00 | 0.00 | 0.00 | 72 | 1004.0 |
| 20260508102609 | 7 | 270 | 24.1 | 38.6 | 0.00 | 0.00 | 0.00 | 71 | 1004.1 |
| 20260508102059 | 7 | 270 | 16.1 | 32.2 | 0.00 | 0.00 | 0.00 | 72 | 1004.0 |
| 20260508101549 | 7 | 270 | 17.7 | 32.2 | 0.00 | 0.00 | 0.00 | 72 | 1003.9 |
| 20260508101039 | 7 | 270 | 19.3 | 38.6 | 0.00 | 0.00 | 0.00 | 72 | 1003.6 |
| 20260508100531 | 7 | 0 | 17.7 | 41.8 | 0.00 | 0.00 | 0.00 | 72 | 1003.6 |
| 20260508100020 | 7 | 270 | 30.6 | 41.8 | 0.00 | 0.00 | 0.00 | 71 | 1003.6 |
| 20260508095508 | 7 | 270 | 22.5 | 40.2 | 0.00 | 0.00 | 0.00 | 72 | 1003.3 |
| 20260508095000 | 7 | 0 | 19.3 | 40.2 | 0.00 | 0.00 | 0.00 | 72 | 1003.5 |
| 20260508094446 | 7 | 270 | 27.4 | 46.7 | 0.00 | 0.00 | 0.00 | 72 | 1003.0 |
| 20260508093938 | 7 | 270 | 16.1 | 46.7 | 0.00 | 0.00 | 0.00 | 73 | 1003.1 |
| 20260508092918 | 8 | 270 | 20.9 | 41.8 | 0.00 | 0.00 | 0.00 | 73 | 1003.1 |
| 20260508091858 | 8 | 270 | 14.5 | 32.2 | 0.00 | 0.00 | 0.00 | 74 | 1002.9 |
| 20260508091348 | 8 | 270 | 20.9 | 37.0 | 0.00 | 0.00 | 0.00 | 75 | 1002.9 |
| 20260508090841 | 8 | 270 | 12.9 | 37.0 | 0.00 | 0.00 | 0.00 | 76 | 1003.1 |
| 20260508090327 | 8 | 270 | 24.1 | 40.2 | 0.00 | 0.00 | 0.00 | 75 | 1002.9 |
| 20260508085818 | 8 | 270 | 25.7 | 40.2 | 0.00 | 0.00 | 0.00 | 76 | 1002.9 |
| 20260508085308 | 8 | 270 | 19.3 | 37.0 | 0.00 | 0.00 | 0.00 | 77 | 1002.9 |
| 20260508084758 | 8 | 270 | 16.1 | 38.6 | 0.00 | 0.00 | 0.00 | 78 | 1002.8 |
| 20260508084247 | 8 | 270 | 16.1 | 38.6 | 0.00 | 0.00 | 0.00 | 79 | 1002.8 |
| 20260508083227 | 8 | 315 | 16.1 | 40.2 | 0.00 | 0.00 | 0.00 | 80 | 1002.7 |
| 20260508082717 | 8 | 270 | 27.4 | 40.2 | 0.00 | 0.00 | 0.00 | 81 | 1002.8 |
| 20260508081657 | 8 | 0 | 17.7 | 41.8 | 0.00 | 0.00 | 0.00 | 82 | 1002.8 |
| 20260508081147 | 9 | 270 | 17.7 | 43.5 | 0.00 | 0.00 | 0.00 | 82 | 1002.7 |
| 20260508080636 | 9 | 270 | 25.7 | 54.7 | 0.00 | 0.00 | 0.00 | 82 | 1002.7 |
| 20260508080126 | 9 | 270 | 16.1 | 54.7 | 0.00 | 0.00 | 0.00 | 82 | 1003.0 |
| 20260508074556 | 10 | 270 | 9.7 | 43.5 | 0.00 | 0.00 | 0.00 | 82 | 1002.9 |
| 20260508074046 | 9 | 270 | 17.7 | 37.0 | 0.00 | 0.00 | 0.00 | 81 | 1002.7 |
| 20260508073536 | 9 | 0 | 20.9 | 37.0 | 0.00 | 0.00 | 0.00 | 81 | 1003.0 |
| 20260508071455 | 9 | 270 | 16.1 | 33.8 | 0.00 | 0.00 | 0.00 | 82 | 1003.0 |
| 20260508070945 | 9 | 270 | 16.1 | 35.4 | 0.00 | 0.00 | 0.00 | 82 | 1002.8 |
| 20260508070435 | 9 | 270 | 16.1 | 35.4 | 0.00 | 0.00 | 0.00 | 82 | 1002.9 |
| 20260508065925 | 9 | 270 | 17.7 | 33.8 | 0.00 | 0.00 | 0.00 | 82 | 1002.8 |
| 20260508065415 | 9 | 270 | 22.5 | 35.4 | 0.00 | 0.00 | 0.00 | 81 | 1002.9 |
| 20260508064355 | 9 | 270 | 17.7 | 38.6 | 0.00 | 0.00 | 0.00 | 80 | 1003.0 |
| 20260508063845 | 9 | 270 | 27.4 | 38.6 | 0.00 | 0.00 | 0.00 | 80 | 1003.2 |
| 20260508063335 | 10 | 270 | 14.5 | 30.6 | 0.00 | 0.00 | 0.00 | 79 | 1003.2 |
| 20260508062824 | 10 | 270 | 17.7 | 35.4 | 0.00 | 0.00 | 0.00 | 78 | 1003.0 |
| 20260508062314 | 10 | 270 | 16.1 | 35.4 | 0.00 | 0.00 | 0.00 | 77 | 1003.2 |
| 20260508061804 | 10 | 225 | 12.9 | 35.4 | 0.00 | 0.00 | 0.00 | 77 | 1002.9 |
| 20260508060744 | 10 | 270 | 24.1 | 0.0 | 0.00 | 0.00 | 0.00 | 76 | 1003.1 |
| 20260508060151 | 10 | 270 | 25.7 | 0.0 | 0.00 | 0.00 | 0.00 | 77 | 1003.3 |
| 20260508055956 | 10 | 270 | 30.6 | 43.5 | 0.00 | 2.26 | 0.00 | 76 | 1003.5 |
| 20260508055446 | 11 | 270 | 25.7 | 48.3 | 0.00 | 2.26 | 0.00 | 77 | 1003.2 |
| 20260508054936 | 11 | 270 | 30.6 | 48.3 | 2.26 | 2.26 | 0.00 | 76 | 1003.2 |
| 20260508054426 | 11 | 270 | 25.7 | 49.9 | 2.26 | 2.26 | 0.00 | 77 | 1003.4 |
| 20260508053916 | 11 | 270 | 20.9 | 49.9 | 2.26 | 2.26 | 0.00 | 77 | 1003.5 |
| 20260508053406 | 11 | 270 | 27.4 | 48.3 | 2.26 | 2.26 | 0.00 | 77 | 1003.3 |
| 20260508052856 | 11 | 270 | 25.7 | 54.7 | 2.26 | 2.26 | 0.00 | 78 | 1003.5 |
| 20260508052345 | 11 | 270 | 37.0 | 54.7 | 2.26 | 2.26 | 0.00 | 78 | 1003.3 |
| 20260508051835 | 11 | 225 | 38.6 | 54.7 | 2.26 | 2.26 | 0.00 | 77 | 1003.4 |
| 20260508050814 | 11 | 225 | 33.8 | 67.6 | 2.26 | 2.26 | 0.00 | 78 | 1003.5 |
| 20260508050306 | 11 | 270 | 37.0 | 67.6 | 2.26 | 2.26 | 0.00 | 78 | 1003.1 |
| 20260508045244 | 11 | 225 | 30.6 | 64.4 | 2.26 | 2.26 | 0.00 | 78 | 1002.9 |
| 20260508044734 | 11 | 270 | 37.0 | 56.3 | 0.00 | 0.00 | 0.00 | 77 | 1003.0 |
| 20260508044224 | 11 | 270 | 32.2 | 54.7 | 0.00 | 0.00 | 0.00 | 79 | 1003.1 |
| 20260508043714 | 11 | 270 | 29.0 | 49.9 | 0.00 | 0.00 | 0.00 | 79 | 1003.0 |
| 20260508043204 | 11 | 270 | 33.8 | 62.8 | 0.00 | 0.00 | 0.00 | 80 | 1003.3 |
| 20260508042654 | 11 | 270 | 35.4 | 62.8 | 0.00 | 0.00 | 0.00 | 80 | 1003.3 |
| 20260508042145 | 11 | 270 | 22.5 | 54.7 | 0.00 | 0.00 | 0.00 | 80 | 1003.4 |
| 20260508041634 | 11 | 270 | 37.0 | 54.7 | 0.00 | 0.00 | 0.00 | 81 | 1003.1 |
| 20260508041123 | 11 | 270 | 32.2 | 54.7 | 0.00 | 0.00 | 0.00 | 81 | 1003.4 |
| 20260508040117 | 11 | 270 | 27.4 | 37.0 | 0.00 | 0.00 | 0.00 | 84 | 1003.4 |
| 20260508032341 | 11 | 270 | 27.4 | 54.7 | 0.00 | 0.00 | 0.00 | 82 | 1002.8 |
| 20260508031831 | 11 | 270 | 33.8 | 54.7 | 0.00 | 0.00 | 0.00 | 82 | 1002.7 |
| 20260508031322 | 11 | 270 | 25.7 | 54.7 | 0.00 | 0.00 | 0.00 | 83 | 1002.6 |
| 20260508030811 | 11 | 270 | 33.8 | 54.7 | 0.00 | 0.00 | 0.00 | 82 | 1002.9 |
| 20260508030302 | 12 | 270 | 35.4 | 64.4 | 0.00 | 0.00 | 0.00 | 82 | 1002.6 |
| 20260508025751 | 12 | 270 | 40.2 | 64.4 | 0.00 | 0.00 | 0.94 | 82 | 1002.6 |
| 20260508025241 | 12 | 270 | 32.2 | 64.4 | 0.00 | 0.00 | 0.94 | 82 | 1002.6 |
| 20260508024221 | 12 | 270 | 38.6 | 67.6 | 0.00 | 0.00 | 0.94 | 81 | 1002.6 |
| 20260508023201 | 12 | 270 | 14.5 | 0.0 | 0.00 | 0.00 | 0.94 | 81 | 1002.3 |
| 20260508022135 | 12 | 270 | 16.1 | 37.0 | 0.00 | 0.56 | 0.94 | 81 | 1002.2 |
| 20260508021624 | 12 | 270 | 8.0 | 37.0 | 0.00 | 0.56 | 0.94 | 81 | 1002.1 |
| 20260508020605 | 12 | 270 | 22.5 | 45.1 | 0.00 | 0.56 | 0.94 | 80 | 1002.1 |
| 20260508015544 | 12 | 270 | 33.8 | 43.5 | 0.00 | 0.56 | 0.94 | 80 | 1002.1 |
| 20260508015034 | 12 | 270 | 24.1 | 43.5 | 0.00 | 0.56 | 0.94 | 80 | 1002.3 |
| 20260508014524 | 12 | 270 | 24.1 | 43.5 | 0.00 | 0.56 | 0.94 | 81 | 1002.0 |
| 20260508014014 | 12 | 270 | 22.5 | 38.6 | 0.00 | 0.56 | 0.94 | 81 | 1002.2 |
| 20260508013504 | 12 | 270 | 20.9 | 37.0 | 0.00 | 0.56 | 0.94 | 82 | 1002.2 |
| 20260508012954 | 12 | 225 | 25.7 | 48.3 | 0.00 | 0.56 | 0.94 | 82 | 1002.2 |
| 20260508012443 | 12 | 270 | 32.2 | 48.3 | 0.00 | 0.56 | 0.94 | 81 | 1002.2 |
| 20260508011934 | 12 | 225 | 32.2 | 43.5 | 0.00 | 0.56 | 0.94 | 81 | 1002.4 |
| 20260508011423 | 12 | 270 | 29.0 | 43.5 | 0.00 | 0.56 | 0.94 | 82 | 1002.5 |
| 20260508010914 | 12 | 270 | 29.0 | 41.8 | 0.00 | 0.56 | 0.94 | 82 | 1002.3 |
| 20260508010403 | 12 | 270 | 19.3 | 38.6 | 0.00 | 0.56 | 0.94 | 83 | 1002.5 |
| 20260508005853 | 12 | 270 | 27.4 | 37.0 | 0.00 | 0.56 | 0.94 | 83 | 1002.8 |
| 20260508005342 | 12 | 270 | 24.1 | 37.0 | 0.00 | 0.56 | 0.94 | 84 | 1002.7 |
| 20260508004833 | 12 | 270 | 24.1 | 37.0 | 0.00 | 0.56 | 0.94 | 84 | 1003.1 |
| 20260508003812 | 12 | 270 | 24.1 | 45.1 | 0.00 | 0.56 | 0.94 | 85 | 1002.7 |
| 20260508002752 | 13 | 270 | 30.6 | 48.3 | 0.00 | 0.56 | 0.94 | 83 | 1002.3 |
| 20260508002243 | 13 | 270 | 29.0 | 48.3 | 0.00 | 0.56 | 0.94 | 83 | 1002.2 |
| 20260508001732 | 13 | 270 | 29.0 | 46.7 | 0.00 | 0.56 | 0.94 | 82 | 1002.6 |
| 20260508001222 | 13 | 225 | 17.7 | 35.4 | 0.00 | 0.56 | 0.94 | 81 | 1002.7 |
| 20260508000712 | 13 | 270 | 12.9 | 27.4 | 0.00 | 0.56 | 0.94 | 81 | 1002.5 |
| 20260508000204 | 13 | 270 | 16.1 | 33.8 | 0.00 | 0.56 | 0.94 | 81 | 1002.7 |
| 20260507235652 | 13 | 270 | 14.5 | 33.8 | 0.00 | 0.56 | 0.94 | 80 | 1002.7 |
| 20260507235142 | 13 | 270 | 17.7 | 30.6 | 0.00 | 0.56 | 0.94 | 80 | 1003.0 |
| 20260507234631 | 13 | 270 | 17.7 | 33.8 | 0.00 | 0.56 | 0.94 | 80 | 1002.9 |
| 20260507234121 | 13 | 270 | 20.9 | 37.0 | 0.00 | 0.56 | 0.94 | 80 | 1002.7 |
| 20260507233611 | 13 | 270 | 22.5 | 37.0 | 0.00 | 0.56 | 0.94 | 79 | 1002.6 |
| 20260507233101 | 13 | 270 | 20.9 | 32.2 | 0.00 | 0.56 | 0.94 | 80 | 1002.6 |
| 20260507232551 | 13 | 270 | 8.0 | 27.4 | 0.00 | 0.56 | 0.94 | 80 | 1002.8 |
| 20260507232041 | 13 | 270 | 16.1 | 25.7 | 0.00 | 0.56 | 0.94 | 80 | 1003.0 |
| 20260507231532 | 13 | 270 | 9.7 | 19.3 | 0.00 | 0.56 | 0.94 | 80 | 1002.7 |
| 20260507230511 | 13 | 270 | 12.9 | 30.6 | 0.00 | 0.56 | 0.94 | 79 | 1002.7 |
| 20260507225451 | 13 | 270 | 11.3 | 27.4 | 0.00 | 0.56 | 0.94 | 78 | 1003.1 |
| 20260507224430 | 13 | 270 | 12.9 | 27.4 | 0.00 | 0.56 | 0.94 | 79 | 1002.9 |
| 20260507223920 | 13 | 270 | 17.7 | 30.6 | 0.00 | 0.56 | 0.94 | 79 | 1003.3 |
| 20260507223410 | 13 | 270 | 17.7 | 30.6 | 0.00 | 0.56 | 0.94 | 80 | 1003.0 |
| 20260507222859 | 13 | 270 | 11.3 | 27.4 | 0.00 | 0.56 | 0.94 | 81 | 1003.0 |
| 20260507221329 | 12 | 270 | 9.7 | 24.1 | 0.00 | 0.56 | 0.94 | 82 | 1003.0 |
| 20260507220819 | 12 | 270 | 11.3 | 22.5 | 0.00 | 0.56 | 0.94 | 82 | 1003.2 |
| 20260507220309 | 12 | 0 | 17.7 | 22.5 | 0.00 | 0.56 | 0.94 | 83 | 1003.0 |
| 20260507214739 | 12 | 270 | 8.0 | 20.9 | 0.00 | 0.56 | 0.94 | 82 | 1003.1 |
| 20260507214229 | 12 | 270 | 6.4 | 17.7 | 0.00 | 0.56 | 0.94 | 82 | 1003.1 |
| 20260507213719 | 13 | 270 | 6.4 | 17.7 | 0.00 | 0.56 | 0.94 | 82 | 1003.0 |
| 20260507212658 | 13 | 270 | 4.8 | 20.9 | 0.00 | 0.56 | 0.94 | 81 | 1002.6 |
| 20260507212149 | 13 | 315 | 11.3 | 25.7 | 0.00 | 0.56 | 0.94 | 81 | 1002.5 |
| 20260507211128 | 13 | 270 | 16.1 | 27.4 | 0.00 | 0.56 | 0.94 | 80 | 1001.9 |
| 20260507210618 | 13 | 225 | 17.7 | 25.7 | 0.00 | 0.56 | 0.94 | 80 | 1001.8 |
| 20260507210108 | 13 | 270 | 12.9 | 25.7 | 0.00 | 0.56 | 0.94 | 81 | 1002.1 |
| 20260507205558 | 13 | 270 | 16.1 | 24.1 | 0.00 | 0.56 | 0.94 | 81 | 1001.7 |
| 20260507205047 | 13 | 270 | 8.0 | 25.7 | 0.00 | 0.56 | 0.94 | 81 | 1001.6 |
| 20260507204537 | 13 | 270 | 6.4 | 25.7 | 0.00 | 0.56 | 0.94 | 81 | 1001.7 |
| 20260507204028 | 13 | 270 | 17.7 | 27.4 | 0.00 | 0.56 | 0.94 | 80 | 1002.0 |
| 20260507203517 | 13 | 270 | 8.0 | 27.4 | 0.00 | 0.56 | 0.94 | 80 | 1001.9 |
| 20260507203007 | 13 | 270 | 16.1 | 33.8 | 0.00 | 0.56 | 0.94 | 79 | 1002.0 |
| 20260507202457 | 13 | 270 | 19.3 | 38.6 | 0.00 | 0.56 | 0.94 | 78 | 1002.1 |
| 20260507201947 | 13 | 270 | 19.3 | 38.6 | 0.00 | 0.56 | 0.94 | 79 | 1001.1 |
| 20260507201436 | 13 | 225 | 20.9 | 38.6 | 0.00 | 0.56 | 0.94 | 79 | 1001.2 |
| 20260507200926 | 13 | 270 | 24.1 | 38.6 | 0.00 | 0.56 | 0.94 | 78 | 1001.6 |
| 20260507200417 | 13 | 270 | 14.5 | 33.8 | 0.00 | 0.56 | 0.94 | 79 | 1001.1 |
| 20260507195906 | 13 | 270 | 24.1 | 33.8 | 0.00 | 0.56 | 0.94 | 79 | 1001.8 |
| 20260507195357 | 13 | 270 | 17.7 | 33.8 | 0.00 | 0.56 | 0.94 | 80 | 1002.1 |
| 20260507194846 | 14 | 270 | 16.1 | 32.2 | 0.00 | 0.56 | 0.94 | 80 | 1001.7 |
| 20260507193826 | 14 | 270 | 24.1 | 35.4 | 0.00 | 0.56 | 0.94 | 79 | 1000.9 |
| 20260507193317 | 14 | 225 | 24.1 | 37.0 | 0.00 | 0.56 | 0.94 | 78 | 1000.2 |
| 20260507191745 | 14 | 225 | 32.2 | 43.5 | 0.00 | 0.56 | 0.94 | 79 | 1000.2 |
| 20260507191235 | 14 | 225 | 24.1 | 35.4 | 0.00 | 0.56 | 0.94 | 80 | 1000.3 |
| 20260507190725 | 14 | 270 | 22.5 | 38.6 | 0.00 | 0.56 | 0.94 | 79 | 1000.0 |
| 20260507190216 | 14 | 270 | 27.4 | 38.6 | 0.00 | 0.56 | 0.94 | 78 | 999.9 |
| 20260507185705 | 14 | 225 | 30.6 | 43.5 | 0.00 | 0.56 | 0.94 | 78 | 999.9 |
| 20260507185155 | 15 | 180 | 32.2 | 43.5 | 0.00 | 0.56 | 0.94 | 80 | 1000.1 |
| 20260507184645 | 14 | 270 | 27.4 | 41.8 | 0.00 | 0.56 | 0.94 | 81 | 1000.9 |
| 20260507184135 | 14 | 225 | 27.4 | 43.5 | 0.00 | 0.56 | 0.94 | 81 | 1000.4 |
| 20260507183625 | 14 | 270 | 29.0 | 43.5 | 0.00 | 0.56 | 0.94 | 81 | 1001.2 |
| 20260507183114 | 14 | 270 | 24.1 | 51.5 | 0.00 | 0.56 | 0.94 | 81 | 1001.6 |
| 20260507182604 | 14 | 270 | 29.0 | 51.5 | 0.00 | 0.56 | 0.94 | 81 | 1002.3 |
| 20260507182051 | 15 | 270 | 27.4 | 43.5 | 0.00 | 0.56 | 0.94 | 81 | 1002.5 |
| 20260507181541 | 15 | 270 | 20.9 | 40.2 | 0.00 | 0.56 | 0.94 | 82 | 1002.7 |
| 20260507181031 | 15 | 270 | 19.3 | 33.8 | 0.00 | 0.56 | 0.94 | 81 | 1002.1 |
| 20260507180524 | 15 | 270 | 19.3 | 33.8 | 0.00 | 0.56 | 0.94 | 81 | 1001.6 |
| 20260507180013 | 15 | 270 | 20.9 | 35.4 | 0.00 | 0.56 | 0.94 | 81 | 1001.8 |
| 20260507175503 | 15 | 0 | 14.5 | 45.1 | 0.00 | 0.56 | 0.94 | 81 | 1001.8 |
| 20260507174954 | 15 | 270 | 27.4 | 45.1 | 0.00 | 0.56 | 0.94 | 81 | 1002.1 |
| 20260507174443 | 15 | 270 | 29.0 | 43.5 | 0.00 | 0.56 | 0.94 | 81 | 1001.8 |
| 20260507173933 | 15 | 225 | 33.8 | 40.2 | 0.00 | 0.56 | 0.94 | 81 | 1002.3 |
| 20260507172913 | 15 | 270 | 17.7 | 45.1 | 0.00 | 0.56 | 0.94 | 85 | 1002.1 |
| 20260507172402 | 15 | 270 | 27.4 | 49.9 | 0.00 | 0.56 | 0.94 | 85 | 1002.6 |
| 20260507171904 | 15 | 270 | 35.4 | 49.9 | 0.00 | 0.56 | 0.94 | 85 | 1002.3 |
| 20260507171344 | 16 | 270 | 25.7 | 40.2 | 0.00 | 0.56 | 0.94 | 85 | 1002.6 |
| 20260507170833 | 16 | 270 | 24.1 | 38.6 | 0.00 | 0.56 | 0.94 | 82 | 1002.8 |
| 20260507170322 | 16 | 225 | 24.1 | 38.6 | 0.00 | 0.56 | 0.94 | 80 | 1002.9 |
| 20260507165812 | 16 | 270 | 27.4 | 38.6 | 0.00 | 0.56 | 0.94 | 82 | 1002.9 |
| 20260507165306 | 16 | 180 | 16.1 | 38.6 | 0.00 | 0.56 | 0.94 | 84 | 1002.7 |
| 20260507164753 | 16 | 270 | 16.1 | 38.6 | 0.00 | 0.56 | 0.94 | 84 | 1002.9 |
| 20260507164242 | 16 | 270 | 19.3 | 38.6 | 0.00 | 0.56 | 0.94 | 84 | 1002.9 |
| 20260507163733 | 16 | 270 | 25.7 | 43.5 | 0.00 | 0.56 | 0.94 | 83 | 1002.6 |
| 20260507163222 | 17 | 270 | 25.7 | 43.5 | 0.00 | 0.56 | 0.94 | 83 | 1002.5 |
| 20260507162201 | 17 | 180 | 0.0 | 46.7 | 0.00 | 0.56 | 0.94 | 85 | 1013.9 |
| 20260507161651 | 17 | 225 | 35.4 | 46.7 | 0.00 | 0.56 | 0.64 | 84 | 1001.7 |
| 20260507161142 | 17 | 270 | 24.1 | 41.8 | 0.00 | 0.56 | 0.64 | 85 | 1001.5 |
| 20260507160632 | 17 | 270 | 24.1 | 32.2 | 0.00 | 0.56 | 0.64 | 85 | 1001.5 |
| 20260507155102 | 17 | 270 | 11.3 | 33.8 | 0.00 | 0.56 | 0.64 | 88 | 1002.3 |
| 20260507154551 | 17 | 270 | 22.5 | 33.8 | 0.00 | 0.56 | 0.64 | 88 | 1001.7 |
| 20260507154040 | 17 | 270 | 27.4 | 33.8 | 0.00 | 0.56 | 0.64 | 89 | 1001.0 |
| 20260507153530 | 17 | 270 | 20.9 | 30.6 | 0.00 | 0.56 | 0.64 | 89 | 1001.1 |
| 20260507153021 | 17 | 225 | 20.9 | 41.8 | 0.00 | 0.56 | 0.64 | 88 | 1000.7 |
| 20260507152510 | 16 | 225 | 30.6 | 41.8 | 0.00 | 0.56 | 0.64 | 88 | 1000.3 |
| 20260507151450 | 16 | 180 | 12.9 | 27.4 | 0.00 | 0.56 | 0.64 | 89 | 999.7 |
| 20260507150940 | 17 | 225 | 9.7 | 30.6 | 0.00 | 0.56 | 0.64 | 89 | 1000.0 |
| 20260507145919 | 17 | 225 | 24.1 | 33.8 | 0.00 | 0.56 | 0.64 | 87 | 1000.5 |
| 20260507144859 | 17 | 180 | 25.7 | 27.4 | 0.00 | 0.56 | 0.64 | 87 | 999.7 |
| 20260507143839 | 17 | 180 | 16.1 | 25.7 | 0.00 | 0.56 | 0.64 | 86 | 1000.7 |
| 20260507143329 | 17 | 180 | 17.7 | 24.1 | 0.00 | 0.56 | 0.64 | 87 | 1000.6 |
| 20260507142828 | 17 | 180 | 12.9 | 20.9 | 0.00 | 0.56 | 0.64 | 88 | 1001.1 |
| 20260507141759 | 17 | 225 | 14.5 | 33.8 | 0.00 | 0.56 | 0.64 | 88 | 1001.3 |
| 20260507141248 | 17 | 225 | 14.5 | 37.0 | 0.00 | 0.56 | 0.64 | 89 | 1001.0 |
| 20260507140738 | 17 | 225 | 25.7 | 45.1 | 0.00 | 0.56 | 0.64 | 87 | 1000.3 |
| 20260507140228 | 17 | 180 | 35.4 | 45.1 | 0.00 | 0.56 | 0.64 | 87 | 1000.4 |